Weather in Sisaket

Thailand     15°06′43″N   104°19′48″E
temp.,
°C
wind,
m/s
gust,
m/s
humid.,
%
clouds,
%
prec.,
mm/h
press.,
hPa
HPBL,
m
12 may, wed
wed1201:00+29sw49675 0.3 1006234
04:00+28sw387285 0.1 1006267
07:00+29ssw356622 0.4 1008257
10:00+34ssw344610 0.0 10081488
13:00+37ssw333793 0.1 10052582
16:00+37s233485 0.1 10022315
19:00+33sse354810 0.1 1003109
22:00+32ssw235146 0.0 100570
13 may, thu
thu1301:00+30ssw255611 0.0 1004167
04:00+29ssw256312 0.0 1005169
07:00+28sse34694 1.1 1007211
10:00+35s44465 0.0 10071373
13:00+36sw3340100 0.4 10042304
16:00+35sw124162 0.2 1003849
19:00+32ssw3452100 0.2 100374
22:00+31s375793 0.0 1005252
14 may, fri
fri1401:00+30wsw236465 0.0 1004127
04:00+27sw237227 1.0 100472
07:00+29sse346411 1.1 1006253
10:00+35s334629 0.0 10061550
13:00+35wsw3345100 0.6 10041554
16:00+36sw224081 0.0 10021252
19:00+33ssw2349100 0.1 100360
22:00+30sse4863100 1.8 1005216
15 may, sat
sat1501:00+30ssw386661 1.8 1004267
04:00+28sw377351 0.0 1004238
07:00+29s357068 0.0 1006312
10:00+35s334861 0.0 10071428
13:00+35sse224575 0.8 10041520
16:00+36ssw224127 0.2 10021774
19:00+33sse345536 0.2 1003125
22:00+31ssw246250 0.3 1006118
16 may, sun
sun1601:00+30ssw356724 0.8 1004152
04:00+28ssw247288 0.0 1004121
07:00+30s2368100 0.1 1006266
10:00+34s3350100 0.0 10071364
13:00+38s323764 0.0 10042719
16:00+36n124496 0.3 1003303
19:00+33sw235228 0.3 100368
22:00+32ssw22555 0.0 100533